Terminal Aerodrome Forecast
Issued by NWS

Home | Current Version | Previous Version | Text Only | Print | Product List | Glossary On
Versions: 1 2 3 4 5 6 7 8 9 10 11 12
000
FTUS45 KSLC 271120
TAFSGU
TAF
KSGU 271120Z 2712/2812 12005KT P6SM SCT100 BKN200
     FM271700 21010G17KT P6SM BKN120
     FM272100 27018G25KT P6SM BKN100
     FM280200 24009KT P6SM SCT060 BKN100=

USA.gov is the U.S. government's official web portal to all federal, state and local government web resources and services.